Location: Unspecified
(48.6244°N, 0.0000°E)
Time: 23:58:48
(UTC+00:00)

OTV 5 (USA 277) - Visible Passes

Search period start: 15 October 2019 00:00
Search period end: 25 October 2019 00:00
Orbit: 310 x 324 km, 54.5° (Epoch: 08 October)

Date Brightness Start Highest point End Pass type
(mag) Time Alt. Az. Time Alt. Az. Time Alt. Az.
15 Oct ? 03:53:05 16° NE 03:53:05 16° NE 03:54:00 10° ENE visible
15 Oct ? 05:23:59 12° NW 05:26:25 56° NNE 05:29:06 10° ESE visible
16 Oct ? 04:07:19 23° NE 04:07:19 23° NE 04:08:56 10° ENE visible
16 Oct ? 05:38:15 10° WNW 05:40:59 69° SSW 05:43:42 10° SE visible
17 Oct ? 04:21:37 38° NE 04:21:37 38° NE 04:23:49 10° E visible
18 Oct ? 04:36:01 72° E 04:36:01 72° E 04:38:34 10° ESE visible
19 Oct ? 04:50:31 44° SSW 04:50:31 44° SSW 04:52:58 10° SE visible
20 Oct ? 05:05:08 19° SSW 05:05:08 19° SSW 05:06:50 10° S visible
